GW7110 Weather Reports


time (UTC)temp
C
wind
direction
speed
KPH
gust
KPH
rain 1hr
cm
rain 24hr
cm
rain mn
cm
humidity
%
barometer
mb
20260505114127 14 0 0.0 0.0 0.00 0.00 0.00 74 30.0
20260505113627 14 0 0.0 0.0 0.00 0.00 0.00 73 30.0
20260505113128 14 0 0.0 0.0 0.00 0.00 0.00 73 29.9
20260505112628 14 0 0.0 0.0 0.00 0.00 0.00 72 29.9
20260505112127 14 0 0.0 0.0 0.00 0.00 0.00 72 29.9
20260505111628 14 0 0.0 0.0 0.00 0.00 0.00 72 29.9
20260505111127 14 0 0.0 0.0 0.00 0.00 0.00 72 29.9
20260505110628 14 309 0.0 1.6 0.00 0.00 0.00 72 29.9
20260505110128 14 0 0.0 0.0 0.00 0.00 0.00 72 29.9
20260505102129 15 293 0.0 1.6 0.00 0.00 0.00 71 29.9
20260505101630 15 289 0.0 1.6 0.00 0.00 0.00 70 29.9
20260505101128 15 10 0.0 1.6 0.00 0.00 0.00 69 29.9
20260505100628 15 0 0.0 0.0 0.00 0.00 0.00 69 29.9
20260505100128 15 251 0.0 0.0 0.00 0.00 0.00 68 29.9
20260505095627 15 314 1.6 3.2 0.00 0.00 0.00 69 29.9
20260505095129 15 270 1.6 4.8 0.00 0.00 0.00 69 29.9
20260505094627 14 0 0.0 0.0 0.00 0.00 0.00 73 29.9
20260505094128 14 0 0.0 0.0 0.00 0.00 0.00 73 29.9
20260505093627 14 0 0.0 0.0 0.00 0.00 0.00 73 29.9
20260505093127 14 0 0.0 0.0 0.00 0.00 0.00 73 29.9
20260505092627 14 0 0.0 0.0 0.00 0.00 0.00 73 29.9
20260505092129 14 0 0.0 0.0 0.00 0.00 0.00 73 29.9
20260505091630 14 0 0.0 0.0 0.00 0.00 0.00 73 29.9
20260505091128 14 0 0.0 0.0 0.00 0.00 0.00 73 29.9
20260505090627 14 0 0.0 0.0 0.00 0.00 0.00 73 29.9
20260505090127 14 0 0.0 0.0 0.00 0.00 0.00 73 29.9
20260505085628 14 0 0.0 0.0 0.00 0.00 0.00 73 29.9
20260505085127 14 0 0.0 0.0 0.00 0.00 0.00 73 29.9
20260505084628 14 0 0.0 0.0 0.00 0.00 0.00 73 29.9
20260505084128 14 0 0.0 0.0 0.00 0.00 0.00 73 29.9
20260505083629 14 0 0.0 0.0 0.00 0.00 0.00 73 29.9
20260505083127 14 0 0.0 0.0 0.00 0.00 0.00 73 29.9
20260505082628 14 0 0.0 0.0 0.00 0.00 0.00 73 29.9
20260505082127 14 0 0.0 0.0 0.00 0.00 0.00 73 29.9
20260505081628 14 0 0.0 0.0 0.00 0.00 0.00 73 29.9
20260505081129 14 0 0.0 0.0 0.00 0.00 0.00 73 29.9
20260505080628 14 0 0.0 0.0 0.00 0.00 0.00 73 29.9
20260505080127 14 0 0.0 0.0 0.00 0.00 0.00 73 29.9
20260505075627 14 0 0.0 0.0 0.00 0.00 0.00 73 29.9
20260505075128 14 0 0.0 0.0 0.00 0.00 0.00 73 29.9
20260505074140 14 0 0.0 0.0 0.00 0.00 0.00 73 29.9
20260505073629 14 0 0.0 0.0 0.00 0.00 0.00 73 29.9
20260505073127 14 13 0.0 1.6 0.00 0.00 0.00 72 29.9
20260505072628 15 0 0.0 0.0 0.00 0.00 0.00 72 29.9
20260505072128 15 0 0.0 0.0 0.00 0.00 0.00 70 29.9
20260505071627 15 0 0.0 0.0 0.00 0.00 0.00 70 29.9
20260505071128 15 0 0.0 0.0 0.00 0.00 0.00 70 29.9
20260505070628 15 2 0.0 1.6 0.00 0.00 0.00 70 29.9
20260505070127 15 0 0.0 0.0 0.00 0.00 0.00 70 29.9
20260505065627 15 0 0.0 0.0 0.00 0.00 0.00 70 29.9
20260505065128 15 0 0.0 0.0 0.00 0.00 0.00 70 29.9
20260505064627 15 6 0.0 1.6 0.00 0.00 0.00 69 29.9
20260505064127 15 0 0.0 0.0 0.00 0.00 0.00 69 29.9
20260505063627 15 0 0.0 0.0 0.00 0.00 0.00 68 29.9
20260505063128 15 354 0.0 1.6 0.00 0.00 0.00 68 29.9
20260505062628 15 0 0.0 0.0 0.00 0.00 0.00 66 29.9
20260505062127 16 0 0.0 0.0 0.00 0.00 0.00 66 29.9
20260505061628 16 0 0.0 0.0 0.00 0.00 0.00 66 29.9
20260505061128 16 0 0.0 0.0 0.00 0.00 0.00 66 29.9
20260505060628 16 0 0.0 0.0 0.00 0.00 0.00 66 29.9
20260505060127 16 0 0.0 0.0 0.00 0.00 0.00 65 29.9
20260505055628 16 0 0.0 0.0 0.00 0.00 0.00 65 29.9
20260505055127 16 316 0.0 0.0 0.00 0.00 0.00 65 29.9
20260505054628 16 0 0.0 0.0 0.00 0.00 0.00 65 29.9
20260505054127 16 0 0.0 0.0 0.00 0.00 0.00 64 29.9
20260505053629 16 0 0.0 0.0 0.00 0.00 0.00 63 29.9
20260505053128 17 0 0.0 0.0 0.00 0.00 0.00 63 29.9
20260505052628 17 0 0.0 0.0 0.00 0.00 0.00 62 29.9
20260505052130 17 0 0.0 0.0 0.00 0.00 0.00 62 29.9
20260505051628 17 0 0.0 0.0 0.00 0.00 0.00 62 29.9
20260505051129 17 280 0.0 1.6 0.00 0.00 0.00 61 29.9
20260505050627 17 0 0.0 0.0 0.00 0.00 0.00 61 29.9
20260505050127 17 219 0.0 3.2 0.00 0.00 0.00 61 29.9
20260505041627 17 0 0.0 0.0 0.00 0.00 0.00 62 29.9
20260505041129 17 220 0.0 1.6 0.00 0.00 0.00 62 29.9
20260505040627 17 249 0.0 1.6 0.00 0.00 0.00 62 29.9
20260505040127 17 233 0.0 1.6 0.00 0.00 0.00 63 29.9
20260505035629 17 0 0.0 0.0 0.00 0.00 0.00 64 29.9
20260505035127 17 0 0.0 0.0 0.00 0.00 0.00 66 29.9
20260505034627 17 0 0.0 0.0 0.00 0.00 0.00 67 29.9
20260505034128 18 0 0.0 0.0 0.00 0.00 0.00 66 29.9
20260505033627 18 0 0.0 0.0 0.00 0.00 0.00 63 29.9
20260505033127 18 0 0.0 0.0 0.00 0.00 0.00 62 29.9
20260505032627 18 30 0.0 0.0 0.00 0.00 0.00 62 29.9
20260505032127 18 37 0.0 1.6 0.00 0.00 0.00 61 29.9
20260505031628 18 308 0.0 3.2 0.00 0.00 0.00 61 29.9
20260505031128 18 0 0.0 0.0 0.00 0.00 0.00 61 29.9
20260505030629 18 4 0.0 1.6 0.00 0.00 0.00 60 29.9
20260505030127 18 0 0.0 0.0 0.00 0.00 0.00 60 29.9
20260505025627 18 345 0.0 3.2 0.00 0.00 0.00 60 29.9
20260505025127 18 0 0.0 0.0 0.00 0.00 0.00 59 29.9
20260505024628 18 289 0.0 1.6 0.00 0.00 0.00 58 29.9
20260505024128 18 251 0.0 0.0 0.00 0.00 0.00 58 29.9
20260505023628 18 0 0.0 0.0 0.00 0.00 0.00 58 29.9
20260505023128 18 0 0.0 0.0 0.00 0.00 0.00 57 29.9
20260505022628 19 0 0.0 0.0 0.00 0.00 0.00 57 29.9
20260505022130 19 0 0.0 0.0 0.00 0.00 0.00 56 29.9
20260505021629 20 0 0.0 0.0 0.00 0.00 0.00 56 29.9
20260505021127 20 0 0.0 0.0 0.00 0.00 0.00 55 29.9
20260505020628 20 0 0.0 0.0 0.00 0.00 0.00 54 29.9
20260505020127 20 0 0.0 0.0 0.00 0.00 0.00 53 29.9
20260505015628 20 0 0.0 0.0 0.00 0.00 0.00 53 29.9
20260505015128 20 0 0.0 0.0 0.00 0.00 0.00 52 29.9
20260505014627 20 357 0.0 1.6 0.00 0.00 0.00 52 29.9
20260505014128 20 300 3.2 4.8 0.00 0.00 0.00 53 29.9
20260505013629 20 0 0.0 0.0 0.00 0.00 0.00 54 29.9
20260505013128 20 271 0.0 1.6 0.00 0.00 0.00 54 29.9
20260505012628 20 356 0.0 0.0 0.00 0.00 0.00 54 29.9
20260505012128 20 0 0.0 0.0 0.00 0.00 0.00 54 29.9
20260505011628 20 0 0.0 0.0 0.00 0.00 0.00 54 29.9
20260505011129 21 0 0.0 0.0 0.00 0.00 0.00 54 29.9
20260505010628 21 0 0.0 0.0 0.00 0.00 0.00 53 29.9
20260505010127 21 202 1.6 3.2 0.00 0.00 0.00 52 29.9
20260505005628 21 0 0.0 0.0 0.00 0.00 0.00 53 29.9
20260505005130 21 219 0.0 1.6 0.00 0.00 0.00 53 29.9
20260505004628 21 0 0.0 0.0 0.00 0.00 0.00 52 29.9
20260505004127 22 355 0.0 0.0 0.00 0.00 0.00 52 29.9
20260505003627 22 245 0.0 3.2 0.00 0.00 0.00 52 29.9
20260505003127 22 238 0.0 3.2 0.00 0.00 0.00 52 29.9
20260505002627 22 0 0.0 0.0 0.00 0.00 0.00 52 29.9
20260505002127 22 0 0.0 0.0 0.00 0.00 0.00 51 29.9
20260505001628 22 245 0.0 3.2 0.00 0.00 0.00 50 29.9
20260505001128 23 0 0.0 0.0 0.00 0.00 0.00 51 29.9
20260505000628 23 190 0.0 1.6 0.00 0.00 0.00 50 29.9
20260505000127 23 0 0.0 0.0 0.00 0.00 0.00 48 29.9
20260504235628 23 229 0.0 0.0 0.00 0.00 0.00 46 29.9
20260504235128 24 202 1.6 3.2 0.00 0.00 0.00 45 29.9
20260504234628 24 198 0.0 3.2 0.00 0.00 0.00 44 29.9
20260504234128 25 266 0.0 1.6 0.00 0.00 0.00 44 29.9
20260504233627 25 281 0.0 3.2 0.00 0.00 0.00 43 29.9
20260504233127 25 309 0.0 1.6 0.00 0.00 0.00 46 29.9
20260504232628 25 252 1.6 3.2 0.00 0.00 0.00 45 29.9
20260504232128 25 246 0.0 1.6 0.00 0.00 0.00 44 29.9
20260504231627 25 249 0.0 3.2 0.00 0.00 0.00 45 29.9
20260504231128 25 207 1.6 4.8 0.00 0.00 0.00 43 29.9
20260504230627 26 176 1.6 3.2 0.00 0.00 0.00 42 29.9
20260504230127 25 232 1.6 4.8 0.00 0.00 0.00 41 29.9
20260504225628 26 226 1.6 4.8 0.00 0.00 0.00 44 29.9
20260504225128 26 194 0.0 1.6 0.00 0.00 0.00 44 29.9
20260504224629 25 197 1.6 3.2 0.00 0.00 0.00 44 29.9
20260504224128 25 248 1.6 4.8 0.00 0.00 0.00 44 29.9
20260504223628 25 242 0.0 3.2 0.00 0.00 0.00 43 29.9
20260504223128 26 228 1.6 4.8 0.00 0.00 0.00 42 29.9
20260504222628 26 253 4.8 8.0 0.00 0.00 0.00 42 29.9
20260504222130 26 257 1.6 4.8 0.00 0.00 0.00 42 29.9
20260504221628 26 249 3.2 8.0 0.00 0.00 0.00 41 29.9
20260504221127 27 262 1.6 4.8 0.00 0.00 0.00 41 29.9
20260504220628 27 227 1.6 4.8 0.00 0.00 0.00 40 29.9
20260504220129 26 273 1.6 4.8 0.00 0.00 0.00 41 29.9
20260504215627 26 212 3.2 6.4 0.00 0.00 0.00 41 29.9
20260504215128 26 250 3.2 6.4 0.00 0.00 0.00 40 29.9
20260504214627 26 270 3.2 4.8 0.00 0.00 0.00 41 29.9
20260504214128 26 209 0.0 3.2 0.00 0.00 0.00 41 29.9
20260504213627 26 269 3.2 9.7 0.00 0.00 0.00 40 29.9
20260504213127 26 260 4.8 8.0 0.00 0.00 0.00 40 29.9
20260504212627 25 275 3.2 6.4 0.00 0.00 0.00 43 29.9
20260504212128 25 274 3.2 4.8 0.00 0.00 0.00 44 29.9
20260504211628 25 253 1.6 4.8 0.00 0.00 0.00 45 29.9
20260504211128 25 273 3.2 6.4 0.00 0.00 0.00 43 29.9
20260504210627 25 277 3.2 4.8 0.00 0.00 0.00 46 29.9
20260504210127 25 248 1.6 8.0 0.00 0.00 0.00 46 29.9
20260504205628 25 276 1.6 3.2 0.00 0.00 0.00 45 29.9
20260504205127 25 156 0.0 1.6 0.00 0.00 0.00 46 29.9
20260504204627 26 283 3.2 6.4 0.00 0.00 0.00 44 29.9
20260504204127 26 272 3.2 6.4 0.00 0.00 0.00 45 29.9
20260504203627 26 253 1.6 6.4 0.00 0.00 0.00 45 29.9
20260504203127 26 261 3.2 8.0 0.00 0.00 0.00 45 29.9
20260504202627 26 199 1.6 4.8 0.00 0.00 0.00 44 29.9
20260504202128 25 202 1.6 3.2 0.00 0.00 0.00 45 29.9
20260504201628 25 254 3.2 9.7 0.00 0.00 0.00 46 29.9
20260504201128 25 210 3.2 6.4 0.00 0.00 0.00 45 29.9
20260504200628 26 266 1.6 3.2 0.00 0.00 0.00 44 29.9
20260504200129 25 186 0.0 3.2 0.00 0.00 0.00 45 29.9
20260504195628 25 250 1.6 6.4 0.00 0.00 0.00 45 29.9
20260504195127 25 176 1.6 3.2 0.00 0.00 0.00 45 29.9
20260504194629 26 184 1.6 6.4 0.00 0.00 0.00 44 30.0
20260504194129 25 255 1.6 6.4 0.00 0.00 0.00 44 30.0
20260504193628 25 190 1.6 3.2 0.00 0.00 0.00 45 30.0
20260504193128 25 220 1.6 4.8 0.00 0.00 0.00 46 30.0
20260504192628 25 286 3.2 4.8 0.00 0.00 0.00 46 30.0
20260504192128 25 262 3.2 6.4 0.00 0.00 0.00 48 30.0
20260504191628 25 183 1.6 4.8 0.00 0.00 0.00 46 30.0
20260504191127 25 206 0.0 3.2 0.00 0.00 0.00 47 30.0
20260504190628 25 200 0.0 3.2 0.00 0.00 0.00 47 30.0
20260504190128 25 182 1.6 6.4 0.00 0.00 0.00 49 30.0
20260504185628 25 185 1.6 4.8 0.00 0.00 0.00 47 30.0
20260504185127 25 215 1.6 6.4 0.00 0.00 0.00 46 30.0
20260504184628 25 238 1.6 3.2 0.00 0.00 0.00 47 30.0
20260504184130 25 252 1.6 6.4 0.00 0.00 0.00 48 30.0
20260504183628 25 177 0.0 0.0 0.00 0.00 0.00 49 30.0
20260504183129 25 199 3.2 4.8 0.00 0.00 0.00 47 30.0
20260504182628 25 197 1.6 8.0 0.00 0.00 0.00 46 30.0
20260504182128 25 204 1.6 3.2 0.00 0.00 0.00 49 30.0
20260504181628 25 147 0.0 3.2 0.00 0.00 0.00 48 30.0
20260504181130 25 253 0.0 4.8 0.00 0.00 0.00 49 30.0
20260504180629 24 217 1.6 4.8 0.00 0.00 0.00 48 30.0
20260504180128 24 260 1.6 8.0 0.00 0.00 0.00 48 30.0
20260504175627 24 223 3.2 6.4 0.00 0.00 0.00 49 30.0
20260504175128 23 250 1.6 4.8 0.00 0.00 0.00 48 30.0
20260504174628 24 258 3.2 4.8 0.00 0.00 0.00 49 30.0
20260504174127 24 201 1.6 3.2 0.00 0.00 0.00 48 30.0
20260504173627 23 245 3.2 6.4 0.00 0.00 0.00 50 30.0
20260504173129 23 210 1.6 8.0 0.00 0.00 0.00 48 30.0
20260504172630 23 257 0.0 4.8 0.00 0.00 0.00 48 30.0
20260504172128 23 224 0.0 3.2 0.00 0.00 0.00 50 30.0
20260504171628 23 248 1.6 4.8 0.00 0.00 0.00 49 30.0
20260504171128 23 217 0.0 3.2 0.00 0.00 0.00 49 30.0
20260504170628 23 287 0.0 3.2 0.00 0.00 0.00 51 30.0
20260504170128 22 274 0.0 0.0 0.00 0.00 0.00 52 30.0
20260504160128 20 224 1.6 4.8 0.00 0.00 0.00 52 30.0
20260504151128 18 184 0.0 3.2 0.00 0.00 0.00 57 30.0
20260504150150 17 314 1.6 3.2 0.00 0.00 0.00 57 30.0
20260504141127 14 299 1.6 3.2 0.00 0.00 0.00 71 30.1
20260504140257 13 284 3.2 3.2 0.00 0.00 0.00 73 30.1